Location: Banff
(51.1667°N, 115.5667°W)
Time: 06:43:14
(UTC+00:00)

S-56A Canister/Altair - Pass Details

Date: 02 December 2020
Orbit: 633 x 2499 km, 38.9° (Epoch: 21 January)

Event Time Altitude Azimuth Distance (km) Brightness Sun altitude
Rises 06:08:28 0° 265° (W) 4,985 11.9 -56.7°
Enters shadow 06:11:13 - 260° (W) 4,126 11.4 -56.9°
Reaches altitude 10° 06:12:46 10° 255° (WSW) 3,650 - -57.1°
Maximum altitude 06:19:44 26° 204° (SSW) 2,077 - -57.7°
Drops below altitude 10° 06:24:53 10° 149° (SSE) 2,626 - -58.1°
Sets 06:27:27 0° 136° (SE) 3,369 - -58.3°
